Time,TemperatureF,DewpointF,PressureIn,WindDirection,WindDirectionDegrees,WindSpeedMPH,WindSpeedGustMPH,Humidity,HourlyPrecipIn,Conditions,Clouds,dailyrainin,SoftwareType,DateUTC
2013-03-18 00:00:00,30.9,22.9,30.21,NNE,14,1.0,1.0,72,0.00,,,0.00,Wunderground v.1.15,2013-03-18 04:00:00,
2013-03-18 00:01:00,30.9,22.9,30.21,NNE,18,1.0,2.0,72,0.00,,,0.00,Wunderground v.1.15,2013-03-18 04:01:00,
2013-03-18 00:03:00,30.9,22.9,30.21,East,90,1.0,2.0,72,0.00,,,0.00,Wunderground v.1.15,2013-03-18 04:03:00,
2013-03-18 00:09:00,30.9,22.9,30.20,SE,135,0.0,2.0,72,0.00,,,0.00,Wunderground v.1.15,2013-03-18 04:09:00,
2013-03-18 00:12:00,30.9,22.9,30.21,SE,132,0.0,0.0,72,0.00,,,0.00,Wunderground v.1.15,2013-03-18 04:12:00,
2013-03-18 00:18:00,30.8,22.8,30.20,ESE,105,0.0,1.0,72,0.00,,,0.00,Wunderground v.1.15,2013-03-18 04:18:00,
2013-03-18 00:23:00,30.8,22.8,30.20,East,80,0.0,1.0,72,0.00,,,0.00,Wunderground v.1.15,2013-03-18 04:23:00,
2013-03-18 00:29:00,30.9,22.9,30.20,ESE,118,0.0,3.0,72,0.00,,,0.00,Wunderground v.1.15,2013-03-18 04:29:00,
2013-03-18 00:34:00,30.9,22.9,30.19,NE,42,0.0,1.0,72,0.00,,,0.00,Wunderground v.1.15,2013-03-18 04:34:00,
2013-03-18 00:39:00,31.0,23.0,30.19,East,86,0.0,1.0,72,0.00,,,0.00,Wunderground v.1.15,2013-03-18 04:39:00,
2013-03-18 00:45:00,31.0,22.7,30.19,ENE,65,1.0,3.0,71,0.00,,,0.00,Wunderground v.1.15,2013-03-18 04:45:00,
2013-03-18 00:50:00,31.0,22.7,30.19,WSW,241,1.0,1.0,71,0.00,,,0.00,Wunderground v.1.15,2013-03-18 04:50:00,
2013-03-18 00:55:00,31.0,22.7,30.19,NNE,22,0.0,1.0,71,0.00,,,0.00,Wunderground v.1.15,2013-03-18 04:55:00,
2013-03-18 01:00:00,31.1,22.8,30.19,SE,130,0.0,0.0,71,0.00,,,0.00,Wunderground v.1.15,2013-03-18 05:00:00,
2013-03-18 01:06:00,31.0,23.0,30.19,SE,140,0.0,3.0,72,0.00,,,0.00,Wunderground v.1.15,2013-03-18 05:06:00,
2013-03-18 01:12:00,31.0,22.7,30.18,ENE,76,1.0,3.0,71,0.00,,,0.00,Wunderground v.1.15,2013-03-18 05:12:00,
2013-03-18 01:17:00,31.0,22.7,30.19,ENE,63,0.0,3.0,71,0.00,,,0.00,Wunderground v.1.15,2013-03-18 05:17:00,
2013-03-18 01:22:00,31.0,23.0,30.18,SE,126,0.0,1.0,72,0.00,,,0.00,Wunderground v.1.15,2013-03-18 05:22:00,
2013-03-18 01:28:00,31.0,22.7,30.18,NE,52,0.0,1.0,71,0.00,,,0.00,Wunderground v.1.15,2013-03-18 05:28:00,
2013-03-18 01:34:00,31.0,23.0,30.18,East,99,1.0,2.0,72,0.00,,,0.00,Wunderground v.1.15,2013-03-18 05:34:00,
2013-03-18 01:39:00,31.0,22.7,30.18,SE,136,1.0,2.0,71,0.00,,,0.00,Wunderground v.1.15,2013-03-18 05:39:00,
2013-03-18 01:45:00,31.0,22.7,30.18,ESE,111,0.0,1.0,71,0.00,,,0.00,Wunderground v.1.15,2013-03-18 05:45:00,
2013-03-18 01:50:00,31.0,22.7,30.18,NNE,24,1.0,3.0,71,0.00,,,0.00,Wunderground v.1.15,2013-03-18 05:50:00,
2013-03-18 01:56:00,31.1,22.8,30.18,East,81,1.0,3.0,71,0.00,,,0.00,Wunderground v.1.15,2013-03-18 05:56:00,
2013-03-18 02:02:00,31.2,22.9,30.18,East,99,0.0,1.0,71,0.00,,,0.00,Wunderground v.1.15,2013-03-18 06:02:00,
2013-03-18 02:07:00,31.2,22.9,30.18,East,92,0.0,1.0,71,0.00,,,0.00,Wunderground v.1.15,2013-03-18 06:07:00,
2013-03-18 02:13:00,31.3,23.0,30.17,SE,143,0.0,1.0,71,0.00,,,0.00,Wunderground v.1.15,2013-03-18 06:13:00,
2013-03-18 02:18:00,31.4,23.4,30.17,ESE,117,0.0,1.0,72,0.00,,,0.00,Wunderground v.1.15,2013-03-18 06:18:00,
2013-03-18 02:23:00,31.4,23.4,30.17,ESE,117,0.0,0.0,72,0.00,,,0.00,Wunderground v.1.15,2013-03-18 06:23:00,
2013-03-18 02:29:00,31.5,23.2,30.17,NE,48,0.0,2.0,71,0.00,,,0.00,Wunderground v.1.15,2013-03-18 06:29:00,
2013-03-18 02:34:00,31.6,23.3,30.17,SE,144,0.0,1.0,71,0.00,,,0.00,Wunderground v.1.15,2013-03-18 06:34:00,
2013-03-18 02:39:00,31.6,23.3,30.17,ENE,64,0.0,1.0,71,0.00,,,0.00,Wunderground v.1.15,2013-03-18 06:39:00,
2013-03-18 02:45:00,31.7,23.4,30.16,ESE,117,0.0,0.0,71,0.00,,,0.00,Wunderground v.1.15,2013-03-18 06:45:00,
2013-03-18 02:51:00,31.7,23.4,30.15,NE,47,0.0,2.0,71,0.00,,,0.00,Wunderground v.1.15,2013-03-18 06:51:00,
2013-03-18 02:57:00,31.8,23.5,30.15,NE,47,0.0,2.0,71,0.00,,,0.00,Wunderground v.1.15,2013-03-18 06:57:00,
2013-03-18 03:03:00,31.9,23.6,30.16,ENE,72,0.0,0.0,71,0.00,,,0.00,Wunderground v.1.15,2013-03-18 07:03:00,
2013-03-18 03:08:00,32.0,23.7,30.16,NNE,19,0.0,0.0,71,0.00,,,0.00,Wunderground v.1.15,2013-03-18 07:08:00,
2013-03-18 03:13:00,32.1,23.4,30.16,ESE,106,0.0,0.0,70,0.00,,,0.00,Wunderground v.1.15,2013-03-18 07:13:00,
2013-03-18 03:19:00,32.1,23.8,30.16,ESE,106,0.0,0.0,71,0.00,,,0.00,Wunderground v.1.15,2013-03-18 07:19:00,
2013-03-18 03:24:00,32.2,23.8,30.16,East,91,0.0,0.0,71,0.00,,,0.00,Wunderground v.1.15,2013-03-18 07:24:00,
2013-03-18 03:29:00,32.3,23.9,30.16,ENE,72,0.0,0.0,71,0.00,,,0.00,Wunderground v.1.15,2013-03-18 07:29:00,
2013-03-18 03:35:00,32.4,24.0,30.16,NNE,13,0.0,0.0,71,0.00,,,0.00,Wunderground v.1.15,2013-03-18 07:35:00,
2013-03-18 03:40:00,32.5,23.8,30.16,NE,36,0.0,0.0,70,0.00,,,0.00,Wunderground v.1.15,2013-03-18 07:40:00,
2013-03-18 03:46:00,32.6,23.9,30.16,NE,36,0.0,0.0,70,0.00,,,0.00,Wunderground v.1.15,2013-03-18 07:46:00,
2013-03-18 03:52:00,32.7,24.0,30.16,NE,36,0.0,0.0,70,0.00,,,0.00,Wunderground v.1.15,2013-03-18 07:52:00,
2013-03-18 03:57:00,32.8,24.1,30.16,East,101,0.0,0.0,70,0.00,,,0.00,Wunderground v.1.15,2013-03-18 07:57:00,
2013-03-18 04:02:00,32.9,24.2,30.15,East,86,0.0,0.0,70,0.00,,,0.00,Wunderground v.1.15,2013-03-18 08:02:00,
2013-03-18 04:08:00,33.1,24.0,30.15,ENE,65,0.0,0.0,69,0.00,,,0.00,Wunderground v.1.15,2013-03-18 08:08:00,
2013-03-18 04:13:00,33.2,24.1,30.15,ENE,65,0.0,0.0,69,0.00,,,0.00,Wunderground v.1.15,2013-03-18 08:13:00,
2013-03-18 04:19:00,33.3,24.2,30.15,ENE,65,0.0,0.0,69,0.00,,,0.00,Wunderground v.1.15,2013-03-18 08:19:00,
2013-03-18 04:25:00,33.5,24.4,30.15,NE,49,0.0,2.0,69,0.00,,,0.00,Wunderground v.1.15,2013-03-18 08:25:00,
2013-03-18 04:30:00,33.7,24.6,30.15,NNE,14,0.0,1.0,69,0.00,,,0.00,Wunderground v.1.15,2013-03-18 08:30:00,
2013-03-18 04:35:00,33.9,24.4,30.15,NE,38,0.0,1.0,68,0.00,,,0.00,Wunderground v.1.15,2013-03-18 08:35:00,
2013-03-18 04:41:00,34.1,24.6,30.15,ESE,108,0.0,0.0,68,0.00,,,0.00,Wunderground v.1.15,2013-03-18 08:41:00,
2013-03-18 04:47:00,34.2,24.4,30.15,ESE,108,0.0,0.0,67,0.00,,,0.00,Wunderground v.1.15,2013-03-18 08:47:00,
2013-03-18 04:53:00,34.3,24.8,30.14,SE,127,0.0,2.0,68,0.00,,,0.00,Wunderground v.1.15,2013-03-18 08:53:00,
2013-03-18 04:58:00,34.4,24.6,30.15,ESE,113,0.0,2.0,67,0.00,,,0.00,Wunderground v.1.15,2013-03-18 08:58:00,
2013-03-18 05:03:00,34.5,24.7,30.15,SE,140,1.0,1.0,67,0.00,,,0.00,Wunderground v.1.15,2013-03-18 09:03:00,
2013-03-18 05:09:00,34.6,25.5,30.15,ESE,113,1.0,5.0,69,0.00,,,0.00,Wunderground v.1.15,2013-03-18 09:09:00,
2013-03-18 05:14:00,34.6,25.8,30.14,SSW,211,0.0,2.0,70,0.00,,,0.00,Wunderground v.1.15,2013-03-18 09:14:00,
2013-03-18 05:19:00,34.4,27.0,30.14,East,94,1.0,4.0,74,0.00,,,0.00,Wunderground v.1.15,2013-03-18 09:19:00,
2013-03-18 05:25:00,34.0,27.2,30.13,SE,134,1.0,2.0,76,0.00,,,0.00,Wunderground v.1.15,2013-03-18 09:25:00,
2013-03-18 05:31:00,33.6,28.1,30.13,ESE,109,1.0,1.0,80,0.00,,,0.00,Wunderground v.1.15,2013-03-18 09:31:00,
2013-03-18 05:37:00,33.1,28.5,30.14,North,360,2.0,5.0,83,0.00,,,0.00,Wunderground v.1.15,2013-03-18 09:37:00,
2013-03-18 05:42:00,32.8,28.8,30.13,South,180,2.0,3.0,85,0.00,,,0.00,Wunderground v.1.15,2013-03-18 09:42:00,
2013-03-18 05:48:00,32.6,28.9,30.13,SSE,150,2.0,3.0,86,0.00,,,0.00,Wunderground v.1.15,2013-03-18 09:48:00,
2013-03-18 05:53:00,32.5,29.1,30.13,ESE,119,2.0,8.0,87,0.00,,,0.00,Wunderground v.1.15,2013-03-18 09:53:00,
2013-03-18 05:59:00,32.5,29.3,30.13,SSE,148,2.0,8.0,88,0.00,,,0.00,Wunderground v.1.15,2013-03-18 09:59:00,
2013-03-18 06:04:00,32.5,29.3,30.13,SE,137,3.0,7.0,88,0.00,,,0.00,Wunderground v.1.15,2013-03-18 10:04:00,
2013-03-18 06:09:00,32.5,29.1,30.12,ESE,113,3.0,7.0,87,0.00,,,0.00,Wunderground v.1.15,2013-03-18 10:09:00,
2013-03-18 06:15:00,32.5,29.1,30.12,NE,48,3.0,8.0,87,0.00,,,0.00,Wunderground v.1.15,2013-03-18 10:15:00,
2013-03-18 06:22:00,32.5,29.1,30.12,SE,130,3.0,3.0,87,0.00,,,0.00,Wunderground v.1.15,2013-03-18 10:22:00,
2013-03-18 06:27:00,32.6,29.2,30.12,North,11,3.0,3.0,87,0.00,,,0.00,Wunderground v.1.15,2013-03-18 10:27:00,
2013-03-18 06:32:00,32.6,29.2,30.11,NW,326,2.0,3.0,87,0.00,,,0.00,Wunderground v.1.15,2013-03-18 10:32:00,
2013-03-18 06:38:00,32.6,29.2,30.12,NE,49,2.0,4.0,87,0.00,,,0.00,Wunderground v.1.15,2013-03-18 10:38:00,
2013-03-18 06:43:00,32.6,29.4,30.11,South,173,1.0,2.0,88,0.00,,,0.00,Wunderground v.1.15,2013-03-18 10:43:00,
2013-03-18 06:49:00,32.6,29.4,30.10,SSE,148,1.0,2.0,88,0.00,,,0.00,Wunderground v.1.15,2013-03-18 10:49:00,
2013-03-18 06:54:00,32.6,29.4,30.10,ENE,66,2.0,7.0,88,0.00,,,0.00,Wunderground v.1.15,2013-03-18 10:54:00,
2013-03-18 07:00:00,32.6,29.4,30.09,SSE,152,2.0,2.0,88,0.00,,,0.00,Wunderground v.1.15,2013-03-18 11:00:00,
2013-03-18 07:06:00,32.5,29.6,30.09,ESE,122,2.0,5.0,89,0.00,,,0.00,Wunderground v.1.15,2013-03-18 11:06:00,
2013-03-18 07:12:00,32.5,29.3,30.09,East,91,3.0,5.0,88,0.00,,,0.00,Wunderground v.1.15,2013-03-18 11:12:00,
2013-03-18 07:18:00,32.5,29.1,30.09,SE,138,3.0,6.0,87,0.00,,,0.00,Wunderground v.1.15,2013-03-18 11:18:00,
2013-03-18 07:23:00,32.6,29.2,30.08,East,100,4.0,7.0,87,0.00,,,0.00,Wunderground v.1.15,2013-03-18 11:23:00,
2013-03-18 07:28:00,32.7,29.3,30.08,SE,136,3.0,7.0,87,0.00,,,0.00,Wunderground v.1.15,2013-03-18 11:28:00,
2013-03-18 07:34:00,32.8,29.1,30.08,NE,53,3.0,6.0,86,0.00,,,0.00,Wunderground v.1.15,2013-03-18 11:34:00,
2013-03-18 07:40:00,32.9,29.2,30.07,SW,233,4.0,4.0,86,0.00,,,0.00,Wunderground v.1.15,2013-03-18 11:40:00,
2013-03-18 07:45:00,32.9,28.9,30.07,NE,46,4.0,8.0,85,0.00,,,0.00,Wunderground v.1.15,2013-03-18 11:45:00,
2013-03-18 07:51:00,33.0,29.0,30.07,ESE,103,3.0,4.0,85,0.00,,,0.00,Wunderground v.1.15,2013-03-18 11:51:00,
2013-03-18 07:57:00,33.0,29.0,30.07,ESE,120,2.0,4.0,85,0.00,,,0.00,Wunderground v.1.15,2013-03-18 11:57:00,
2013-03-18 08:02:00,33.0,28.7,30.07,SE,137,2.0,7.0,84,0.00,,,0.00,Wunderground v.1.15,2013-03-18 12:02:00,
2013-03-18 08:08:00,33.0,28.7,30.07,ESE,107,3.0,7.0,84,0.00,,,0.00,Wunderground v.1.15,2013-03-18 12:08:00,
2013-03-18 08:13:00,33.0,28.4,30.07,SE,146,3.0,3.0,83,0.00,,,0.00,Wunderground v.1.15,2013-03-18 12:13:00,
2013-03-18 08:19:00,33.1,28.5,30.06,SE,126,2.0,5.0,83,0.00,,,0.00,Wunderground v.1.15,2013-03-18 12:19:00,
2013-03-18 08:24:00,33.1,28.5,30.06,ESE,117,2.0,3.0,83,0.00,,,0.00,Wunderground v.1.15,2013-03-18 12:24:00,
2013-03-18 08:30:00,33.2,28.3,30.05,ESE,121,2.0,2.0,82,0.00,,,0.00,Wunderground v.1.15,2013-03-18 12:30:00,
2013-03-18 08:35:00,33.2,28.0,30.05,NNE,26,2.0,8.0,81,0.00,,,0.00,Wunderground v.1.15,2013-03-18 12:35:00,
2013-03-18 08:41:00,33.2,28.3,30.04,ENE,66,3.0,3.0,82,0.00,,,0.00,Wunderground v.1.15,2013-03-18 12:41:00,
2013-03-18 08:47:00,33.2,28.3,30.04,NE,37,4.0,9.0,82,0.00,,,0.00,Wunderground v.1.15,2013-03-18 12:47:00,
2013-03-18 08:52:00,33.2,28.3,30.04,SE,127,3.0,5.0,82,0.00,,,0.00,Wunderground v.1.15,2013-03-18 12:52:00,
2013-03-18 08:58:00,33.2,28.0,30.03,SE,142,2.0,5.0,81,0.00,,,0.00,Wunderground v.1.15,2013-03-18 12:58:00,
2013-03-18 09:03:00,33.2,28.0,30.03,ESE,104,2.0,5.0,81,0.00,,,0.00,Wunderground v.1.15,2013-03-18 13:03:00,
2013-03-18 09:09:00,33.2,28.3,30.03,North,360,2.0,5.0,82,0.00,,,0.00,Wunderground v.1.15,2013-03-18 13:09:00,
2013-03-18 09:14:00,33.3,27.8,30.03,SSE,150,3.0,5.0,80,0.00,,,0.00,Wunderground v.1.15,2013-03-18 13:14:00,
2013-03-18 09:20:00,33.4,28.2,30.03,ENE,72,3.0,3.0,81,0.00,,,0.00,Wunderground v.1.15,2013-03-18 13:20:00,
2013-03-18 09:25:00,33.4,27.9,30.02,NE,39,2.0,3.0,80,0.00,,,0.00,Wunderground v.1.15,2013-03-18 13:25:00,
2013-03-18 09:31:00,33.6,27.5,30.02,SE,140,3.0,7.0,78,0.00,,,0.00,Wunderground v.1.15,2013-03-18 13:31:00,
2013-03-18 09:37:00,33.7,27.6,30.01,SE,133,3.0,7.0,78,0.00,,,0.00,Wunderground v.1.15,2013-03-18 13:37:00,
2013-03-18 09:42:00,33.8,27.4,30.01,SSE,166,3.0,6.0,77,0.00,,,0.00,Wunderground v.1.15,2013-03-18 13:42:00,
2013-03-18 09:47:00,33.9,27.4,30.01,SE,137,3.0,6.0,77,0.00,,,0.00,Wunderground v.1.15,2013-03-18 13:47:00,
2013-03-18 09:53:00,34.1,27.3,30.01,SE,138,3.0,13.0,76,0.00,,,0.00,Wunderground v.1.15,2013-03-18 13:53:00,
2013-03-18 09:58:00,34.2,27.1,30.01,NNE,32,3.0,13.0,75,0.00,,,0.00,Wunderground v.1.15,2013-03-18 13:58:00,
2013-03-18 10:03:00,34.4,27.3,30.01,SSE,150,3.0,3.0,75,0.00,,,0.00,Wunderground v.1.15,2013-03-18 14:03:00,
2013-03-18 10:09:00,34.5,27.1,30.02,South,183,3.0,3.0,74,0.00,,,0.00,Wunderground v.1.15,2013-03-18 14:09:00,
2013-03-18 10:15:00,34.6,27.5,30.02,NE,49,3.0,10.0,75,0.00,,,0.00,Wunderground v.1.15,2013-03-18 14:15:00,
2013-03-18 10:20:00,34.6,27.2,30.01,SE,135,3.0,3.0,74,0.00,,,0.00,Wunderground v.1.15,2013-03-18 14:20:00,
2013-03-18 10:25:00,34.6,27.8,30.01,SSE,158,2.0,5.0,76,0.00,,,0.00,Wunderground v.1.15,2013-03-18 14:25:00,
2013-03-18 10:32:00,34.6,27.5,30.01,ESE,123,2.0,9.0,75,0.00,,,0.00,Wunderground v.1.15,2013-03-18 14:32:00,
2013-03-18 10:38:00,34.7,27.6,30.00,NNE,17,3.0,9.0,75,0.00,,,0.00,Wunderground v.1.15,2013-03-18 14:38:00,
2013-03-18 10:43:00,34.7,27.6,30.01,East,98,3.0,5.0,75,0.00,,,0.00,Wunderground v.1.15,2013-03-18 14:43:00,
2013-03-18 10:48:00,34.7,27.9,30.01,ENE,59,2.0,5.0,76,0.00,,,0.00,Wunderground v.1.15,2013-03-18 14:48:00,
2013-03-18 10:54:00,34.6,28.4,30.00,East,84,1.0,4.0,78,0.00,,,0.00,Wunderground v.1.15,2013-03-18 14:54:00,
2013-03-18 11:00:00,34.5,28.7,29.99,NNE,33,2.0,2.0,79,0.00,,,0.00,Wunderground v.1.15,2013-03-18 15:00:00,
2013-03-18 11:06:00,34.3,28.8,29.99,SSW,205,2.0,5.0,80,0.00,,,0.00,Wunderground v.1.15,2013-03-18 15:06:00,
2013-03-18 11:12:00,34.2,29.0,29.98,SE,142,1.0,2.0,81,0.00,,,0.00,Wunderground v.1.15,2013-03-18 15:12:00,
2013-03-18 11:17:00,34.1,29.2,29.99,NE,51,1.0,2.0,82,0.00,,,0.01,Wunderground v.1.15,2013-03-18 15:17:00,
2013-03-18 11:22:00,34.0,29.4,29.99,ESE,114,1.0,2.0,83,0.00,,,0.01,Wunderground v.1.15,2013-03-18 15:22:00,
2013-03-18 11:28:00,33.9,29.3,29.99,SE,142,2.0,5.0,83,0.07,,,0.02,Wunderground v.1.15,2013-03-18 15:28:00,
2013-03-18 11:34:00,33.9,29.6,29.98,NE,54,2.0,5.0,84,0.06,,,0.02,Wunderground v.1.15,2013-03-18 15:34:00,
2013-03-18 11:39:00,33.9,29.9,29.98,SE,137,1.0,5.0,85,0.05,,,0.03,Wunderground v.1.15,2013-03-18 15:39:00,
2013-03-18 11:45:00,33.9,29.6,29.98,East,97,1.0,3.0,84,0.11,,,0.04,Wunderground v.1.15,2013-03-18 15:45:00,
2013-03-18 11:50:00,33.8,29.8,29.97,ESE,120,2.0,4.0,85,0.08,,,0.05,Wunderground v.1.15,2013-03-18 15:50:00,
2013-03-18 11:56:00,33.8,30.1,29.95,ESE,103,3.0,4.0,86,0.14,,,0.07,Wunderground v.1.15,2013-03-18 15:56:00,
2013-03-18 12:02:00,33.8,30.1,29.95,NE,42,3.0,4.0,86,0.17,,,0.09,Wunderground v.1.15,2013-03-18 16:02:00,
2013-03-18 12:07:00,33.7,30.0,29.94,NE,47,3.0,4.0,86,0.20,,,0.10,Wunderground v.1.15,2013-03-18 16:07:00,
2013-03-18 12:13:00,33.7,30.2,29.94,ESE,116,2.0,5.0,87,0.10,,,0.11,Wunderground v.1.15,2013-03-18 16:13:00,
2013-03-18 12:18:00,33.6,30.1,29.94,ESE,113,2.0,5.0,87,0.11,,,0.12,Wunderground v.1.15,2013-03-18 16:18:00,
2013-03-18 12:24:00,33.6,30.1,29.94,NE,36,1.0,4.0,87,0.08,,,0.13,Wunderground v.1.15,2013-03-18 16:24:00,
2013-03-18 12:29:00,33.5,30.3,29.93,ESE,108,2.0,4.0,88,0.14,,,0.14,Wunderground v.1.15,2013-03-18 16:29:00,
2013-03-18 12:35:00,33.5,30.3,29.94,SE,137,1.0,2.0,88,0.08,,,0.14,Wunderground v.1.15,2013-03-18 16:35:00,
2013-03-18 12:40:00,33.5,30.3,29.94,SSW,207,2.0,2.0,88,0.13,,,0.15,Wunderground v.1.15,2013-03-18 16:40:00,
2013-03-18 12:45:00,33.4,30.2,29.94,NNE,25,2.0,4.0,88,0.12,,,0.16,Wunderground v.1.15,2013-03-18 16:45:00,
2013-03-18 12:51:00,33.4,30.5,29.94,ENE,76,2.0,2.0,89,0.06,,,0.16,Wunderground v.1.15,2013-03-18 16:51:00,
2013-03-18 12:57:00,33.4,30.5,29.93,NE,44,1.0,3.0,89,0.04,,,0.16,Wunderground v.1.15,2013-03-18 16:57:00,
2013-03-18 13:03:00,33.4,30.5,29.93,SW,227,1.0,3.0,89,0.00,,,0.17,Wunderground v.1.15,2013-03-18 17:03:00,
2013-03-18 13:08:00,33.4,30.8,29.93,ESE,119,1.0,3.0,90,0.00,,,0.17,Wunderground v.1.15,2013-03-18 17:08:00,
2013-03-18 13:13:00,33.5,30.9,29.93,NW,321,0.0,1.0,90,0.05,,,0.18,Wunderground v.1.15,2013-03-18 17:13:00,
2013-03-18 13:19:00,33.5,30.9,29.93,SSE,162,0.0,1.0,90,0.05,,,0.18,Wunderground v.1.15,2013-03-18 17:19:00,
2013-03-18 13:24:00,33.6,31.0,29.93,SE,143,0.0,3.0,90,0.05,,,0.18,Wunderground v.1.15,2013-03-18 17:24:00,
2013-03-18 13:30:00,33.6,31.3,29.93,ESE,120,0.0,2.0,91,0.00,,,0.19,Wunderground v.1.15,2013-03-18 17:30:00,
2013-03-18 13:35:00,33.7,31.4,29.92,ESE,123,0.0,3.0,91,0.00,,,0.19,Wunderground v.1.15,2013-03-18 17:35:00,
2013-03-18 13:40:00,33.8,31.5,29.92,NNE,20,1.0,1.0,91,0.00,,,0.19,Wunderground v.1.15,2013-03-18 17:40:00,
2013-03-18 13:47:00,33.8,31.5,29.91,SSW,208,1.0,4.0,91,0.04,,,0.20,Wunderground v.1.15,2013-03-18 17:47:00,
2013-03-18 13:52:00,33.9,31.6,29.90,SE,126,1.0,1.0,91,0.04,,,0.20,Wunderground v.1.15,2013-03-18 17:52:00,
2013-03-18 13:57:00,34.0,31.6,29.90,East,92,1.0,4.0,91,0.04,,,0.20,Wunderground v.1.15,2013-03-18 17:57:00,
2013-03-18 14:03:00,34.1,31.7,29.90,NE,51,1.0,2.0,91,0.00,,,0.20,Wunderground v.1.15,2013-03-18 18:03:00,
2013-03-18 14:09:00,34.2,31.8,29.90,ESE,119,1.0,2.0,91,0.00,,,0.20,Wunderground v.1.15,2013-03-18 18:09:00,
2013-03-18 14:14:00,34.3,31.9,29.90,SSE,159,1.0,3.0,91,0.00,,,0.20,Wunderground v.1.15,2013-03-18 18:14:00,
2013-03-18 14:19:00,34.4,32.0,29.89,NE,38,1.0,3.0,91,0.00,,,0.20,Wunderground v.1.15,2013-03-18 18:19:00,
2013-03-18 14:25:00,34.4,32.0,29.90,NE,46,1.0,3.0,91,0.00,,,0.20,Wunderground v.1.15,2013-03-18 18:25:00,
2013-03-18 14:30:00,34.6,32.2,29.89,SSW,209,1.0,1.0,91,0.00,,,0.20,Wunderground v.1.15,2013-03-18 18:30:00,
2013-03-18 14:37:00,34.7,32.3,29.89,ESE,115,0.0,1.0,91,0.00,,,0.20,Wunderground v.1.15,2013-03-18 18:37:00,
2013-03-18 14:42:00,34.8,32.4,29.89,NE,43,0.0,1.0,91,0.00,,,0.21,Wunderground v.1.15,2013-03-18 18:42:00,
2013-03-18 14:47:00,34.9,32.5,29.89,ENE,75,0.0,1.0,91,0.00,,,0.21,Wunderground v.1.15,2013-03-18 18:47:00,
2013-03-18 14:53:00,35.0,32.6,29.88,NE,37,0.0,0.0,91,0.00,,,0.21,Wunderground v.1.15,2013-03-18 18:53:00,
2013-03-18 14:58:00,35.1,32.7,29.88,SE,136,0.0,1.0,91,0.00,,,0.21,Wunderground v.1.15,2013-03-18 18:58:00,
2013-03-18 15:04:00,35.3,32.7,29.87,ESE,113,0.0,2.0,90,0.00,,,0.21,Wunderground v.1.15,2013-03-18 19:04:00,
2013-03-18 15:09:00,35.3,32.7,29.87,North,10,0.0,2.0,90,0.00,,,0.21,Wunderground v.1.15,2013-03-18 19:09:00,
2013-03-18 15:15:00,35.5,32.9,29.86,North,350,0.0,2.0,90,0.00,,,0.21,Wunderground v.1.15,2013-03-18 19:15:00,
2013-03-18 15:21:00,35.7,33.1,29.86,NNE,28,1.0,2.0,90,0.00,,,0.22,Wunderground v.1.15,2013-03-18 19:21:00,
2013-03-18 15:27:00,36.0,33.1,29.85,East,98,1.0,2.0,89,0.00,,,0.22,Wunderground v.1.15,2013-03-18 19:27:00,
2013-03-18 15:33:00,36.3,33.4,29.85,SSE,158,1.0,4.0,89,0.00,,,0.22,Wunderground v.1.15,2013-03-18 19:33:00,
2013-03-18 15:38:00,36.5,33.3,29.85,NE,46,1.0,4.0,88,0.00,,,0.22,Wunderground v.1.15,2013-03-18 19:38:00,
2013-03-18 15:44:00,36.9,33.4,29.84,SW,217,1.0,3.0,87,0.00,,,0.22,Wunderground v.1.15,2013-03-18 19:44:00,
2013-03-18 15:49:00,37.1,33.3,29.84,ENE,62,2.0,5.0,86,0.00,,,0.22,Wunderground v.1.15,2013-03-18 19:49:00,
2013-03-18 15:55:00,37.4,33.3,29.84,ESE,103,1.0,10.0,85,0.00,,,0.23,Wunderground v.1.15,2013-03-18 19:55:00,
2013-03-18 16:00:00,37.5,33.4,29.84,ESE,111,1.0,1.0,85,0.00,,,0.23,Wunderground v.1.15,2013-03-18 20:00:00,
2013-03-18 16:06:00,37.6,33.5,29.84,East,98,0.0,1.0,85,0.00,,,0.23,Wunderground v.1.15,2013-03-18 20:06:00,
2013-03-18 16:12:00,37.7,33.6,29.84,SSW,206,1.0,3.0,85,0.00,,,0.23,Wunderground v.1.15,2013-03-18 20:12:00,
2013-03-18 16:18:00,37.8,33.7,29.84,SSW,194,3.0,6.0,85,0.00,,,0.24,Wunderground v.1.15,2013-03-18 20:18:00,
2013-03-18 16:23:00,37.8,34.0,29.83,West,268,2.0,3.0,86,0.00,,,0.24,Wunderground v.1.15,2013-03-18 20:23:00,
2013-03-18 16:29:00,37.6,34.1,29.83,SW,217,1.0,3.0,87,0.00,,,0.24,Wunderground v.1.15,2013-03-18 20:29:00,
2013-03-18 16:34:00,37.5,34.3,29.83,SSE,147,1.0,1.0,88,0.00,,,0.24,Wunderground v.1.15,2013-03-18 20:34:00,
2013-03-18 16:39:00,37.4,34.5,29.83,NE,49,1.0,4.0,89,0.00,,,0.24,Wunderground v.1.15,2013-03-18 20:39:00,
2013-03-18 16:45:00,37.1,34.4,29.82,SSE,166,1.0,3.0,90,0.00,,,0.24,Wunderground v.1.15,2013-03-18 20:45:00,
2013-03-18 16:51:00,36.9,34.2,29.81,East,97,1.0,1.0,90,0.00,,,0.25,Wunderground v.1.15,2013-03-18 20:51:00,
2013-03-18 16:58:00,36.8,34.1,29.81,SE,142,1.0,7.0,90,0.00,,,0.25,Wunderground v.1.15,2013-03-18 20:58:00,
2013-03-18 17:04:00,36.7,34.0,29.81,East,84,1.0,1.0,90,0.00,,,0.25,Wunderground v.1.15,2013-03-18 21:04:00,
2013-03-18 17:09:00,36.7,34.0,29.81,NNE,29,1.0,1.0,90,0.00,,,0.25,Wunderground v.1.15,2013-03-18 21:09:00,
2013-03-18 17:15:00,36.7,34.0,29.81,SE,138,1.0,4.0,90,0.00,,,0.25,Wunderground v.1.15,2013-03-18 21:15:00,
2013-03-18 17:20:00,36.7,34.0,29.80,SSW,196,1.0,4.0,90,0.00,,,0.25,Wunderground v.1.15,2013-03-18 21:20:00,
2013-03-18 17:26:00,36.7,34.0,29.80,South,175,1.0,4.0,90,0.00,,,0.26,Wunderground v.1.15,2013-03-18 21:26:00,
2013-03-18 17:31:00,36.8,33.9,29.80,SSW,202,1.0,4.0,89,0.00,,,0.26,Wunderground v.1.15,2013-03-18 21:31:00,
2013-03-18 17:36:00,36.8,33.9,29.81,North,5,1.0,4.0,89,0.00,,,0.26,Wunderground v.1.15,2013-03-18 21:36:00,
2013-03-18 17:42:00,37.0,34.1,29.82,ENE,57,1.0,2.0,89,0.00,,,0.26,Wunderground v.1.15,2013-03-18 21:42:00,
2013-03-18 17:48:00,37.1,34.2,29.81,NNW,340,1.0,2.0,89,0.00,,,0.26,Wunderground v.1.15,2013-03-18 21:48:00,
2013-03-18 17:54:00,37.1,34.2,29.82,SE,139,0.0,2.0,89,0.00,,,0.26,Wunderground v.1.15,2013-03-18 21:54:00,
2013-03-18 18:00:00,37.1,33.9,29.81,SE,137,1.0,1.0,88,0.00,,,0.26,Wunderground v.1.15,2013-03-18 22:00:00,
2013-03-18 18:06:00,37.2,34.0,29.80,NE,34,0.0,2.0,88,0.00,,,0.26,Wunderground v.1.15,2013-03-18 22:06:00,
2013-03-18 18:11:00,37.3,33.8,29.80,SE,145,1.0,3.0,87,0.00,,,0.26,Wunderground v.1.15,2013-03-18 22:11:00,
2013-03-18 18:17:00,37.4,33.9,29.79,SSW,196,2.0,5.0,87,0.00,,,0.26,Wunderground v.1.15,2013-03-18 22:17:00,
2013-03-18 18:23:00,37.6,33.8,29.79,NE,52,1.0,2.0,86,0.00,,,0.26,Wunderground v.1.15,2013-03-18 22:23:00,
2013-03-18 18:28:00,37.7,33.9,29.79,NNW,341,1.0,3.0,86,0.00,,,0.27,Wunderground v.1.15,2013-03-18 22:28:00,
2013-03-18 18:34:00,37.7,33.9,29.78,South,179,1.0,4.0,86,0.00,,,0.27,Wunderground v.1.15,2013-03-18 22:34:00,
2013-03-18 18:40:00,37.7,33.9,29.78,SE,135,1.0,1.0,86,0.00,,,0.27,Wunderground v.1.15,2013-03-18 22:40:00,
2013-03-18 18:45:00,37.7,33.6,29.79,SE,146,1.0,3.0,85,0.00,,,0.27,Wunderground v.1.15,2013-03-18 22:45:00,
2013-03-18 18:50:00,37.8,33.4,29.78,ESE,107,1.0,1.0,84,0.00,,,0.27,Wunderground v.1.15,2013-03-18 22:50:00,
2013-03-18 18:57:00,37.8,33.4,29.78,NE,53,2.0,5.0,84,0.00,,,0.27,Wunderground v.1.15,2013-03-18 22:57:00,
2013-03-18 19:02:00,37.8,33.4,29.78,ESE,102,1.0,2.0,84,0.00,,,0.27,Wunderground v.1.15,2013-03-18 23:02:00,
2013-03-18 19:08:00,37.9,33.2,29.78,SE,138,1.0,3.0,83,0.00,,,0.27,Wunderground v.1.15,2013-03-18 23:08:00,
2013-03-18 19:14:00,37.9,33.2,29.79,NNE,30,1.0,1.0,83,0.00,,,0.27,Wunderground v.1.15,2013-03-18 23:14:00,
2013-03-18 19:19:00,37.9,33.5,29.78,NNE,30,0.0,1.0,84,0.00,,,0.27,Wunderground v.1.15,2013-03-18 23:19:00,
2013-03-18 19:25:00,37.8,33.1,29.78,East,82,0.0,1.0,83,0.00,,,0.27,Wunderground v.1.15,2013-03-18 23:25:00,
2013-03-18 19:30:00,37.8,33.4,29.79,East,86,0.0,1.0,84,0.00,,,0.27,Wunderground v.1.15,2013-03-18 23:30:00,
2013-03-18 19:36:00,37.9,33.2,29.77,ENE,71,0.0,1.0,83,0.00,,,0.27,Wunderground v.1.15,2013-03-18 23:36:00,
2013-03-18 19:41:00,37.9,33.2,29.77,ENE,67,1.0,2.0,83,0.00,,,0.27,Wunderground v.1.15,2013-03-18 23:41:00,
2013-03-18 19:47:00,37.9,33.2,29.77,ESE,109,1.0,3.0,83,0.00,,,0.27,Wunderground v.1.15,2013-03-18 23:47:00,
2013-03-18 19:52:00,37.9,32.9,29.77,NE,48,1.0,1.0,82,0.00,,,0.27,Wunderground v.1.15,2013-03-18 23:52:00,
2013-03-18 19:58:00,37.9,32.9,29.77,North,5,1.0,2.0,82,0.00,,,0.27,Wunderground v.1.15,2013-03-18 23:58:00,
2013-03-18 20:04:00,38.0,33.0,29.78,SE,132,1.0,4.0,82,0.00,,,0.27,Wunderground v.1.15,2013-03-19 00:04:00,
2013-03-18 20:09:00,38.0,33.0,29.78,East,101,1.0,4.0,82,0.00,,,0.28,Wunderground v.1.15,2013-03-19 00:09:00,
2013-03-18 20:15:00,38.0,33.0,29.78,North,5,0.0,1.0,82,0.00,,,0.28,Wunderground v.1.15,2013-03-19 00:15:00,
2013-03-18 20:20:00,38.0,33.3,29.78,East,85,0.0,0.0,83,0.00,,,0.28,Wunderground v.1.15,2013-03-19 00:20:00,
2013-03-18 20:26:00,38.0,33.3,29.77,South,188,0.0,2.0,83,0.00,,,0.28,Wunderground v.1.15,2013-03-19 00:26:00,
2013-03-18 20:31:00,38.0,33.6,29.77,SSE,165,1.0,2.0,84,0.00,,,0.28,Wunderground v.1.15,2013-03-19 00:31:00,
2013-03-18 20:36:00,38.0,33.6,29.77,ENE,64,1.0,2.0,84,0.00,,,0.28,Wunderground v.1.15,2013-03-19 00:36:00,
2013-03-18 20:42:00,37.9,33.8,29.77,ENE,76,0.0,1.0,85,0.00,,,0.28,Wunderground v.1.15,2013-03-19 00:42:00,
2013-03-18 20:47:00,37.9,33.8,29.77,SSW,206,0.0,1.0,85,0.00,,,0.28,Wunderground v.1.15,2013-03-19 00:47:00,
2013-03-18 20:53:00,37.9,33.8,29.76,East,98,0.0,1.0,85,0.00,,,0.28,Wunderground v.1.15,2013-03-19 00:53:00,
2013-03-18 20:59:00,38.1,34.0,29.76,East,91,0.0,1.0,85,0.00,,,0.28,Wunderground v.1.15,2013-03-19 00:59:00,
2013-03-18 21:04:00,38.1,33.7,29.76,NE,40,0.0,2.0,84,0.00,,,0.28,Wunderground v.1.15,2013-03-19 01:04:00,
2013-03-18 21:10:00,38.3,34.2,29.76,ESE,121,1.0,1.0,85,0.00,,,0.29,Wunderground v.1.15,2013-03-19 01:10:00,
2013-03-18 21:15:00,38.3,33.9,29.76,ESE,119,1.0,1.0,84,0.00,,,0.29,Wunderground v.1.15,2013-03-19 01:15:00,
2013-03-18 21:21:00,38.4,34.3,29.76,ESE,123,0.0,3.0,85,0.00,,,0.29,Wunderground v.1.15,2013-03-19 01:21:00,
2013-03-18 21:27:00,38.5,34.4,29.76,ESE,123,0.0,3.0,85,0.00,,,0.29,Wunderground v.1.15,2013-03-19 01:27:00,
2013-03-18 21:32:00,38.5,34.4,29.76,ESE,106,0.0,0.0,85,0.00,,,0.29,Wunderground v.1.15,2013-03-19 01:32:00,
2013-03-18 21:37:00,38.6,34.5,29.76,NE,51,0.0,0.0,85,0.00,,,0.29,Wunderground v.1.15,2013-03-19 01:37:00,
2013-03-18 21:43:00,38.6,34.5,29.76,ESE,121,0.0,0.0,85,0.00,,,0.29,Wunderground v.1.15,2013-03-19 01:43:00,
2013-03-18 21:48:00,38.7,34.6,29.75,NE,37,0.0,1.0,85,0.00,,,0.29,Wunderground v.1.15,2013-03-19 01:48:00,
2013-03-18 21:54:00,38.8,34.7,29.75,ESE,115,0.0,0.0,85,0.00,,,0.29,Wunderground v.1.15,2013-03-19 01:54:00,
2013-03-18 21:59:00,38.8,34.7,29.75,East,94,0.0,0.0,85,0.00,,,0.29,Wunderground v.1.15,2013-03-19 01:59:00,
2013-03-18 22:04:00,38.9,34.8,29.75,NNE,15,0.0,2.0,85,0.00,,,0.29,Wunderground v.1.15,2013-03-19 02:04:00,
2013-03-18 22:10:00,39.0,34.9,29.75,ENE,65,1.0,1.0,85,0.00,,,0.30,Wunderground v.1.15,2013-03-19 02:10:00,
2013-03-18 22:16:00,39.1,35.0,29.75,ENE,65,0.0,1.0,85,0.00,,,0.30,Wunderground v.1.15,2013-03-19 02:16:00,
2013-03-18 22:22:00,39.1,35.0,29.75,East,84,0.0,4.0,85,0.00,,,0.30,Wunderground v.1.15,2013-03-19 02:22:00,
2013-03-18 22:27:00,39.3,35.2,29.74,ENE,69,0.0,4.0,85,0.00,,,0.30,Wunderground v.1.15,2013-03-19 02:27:00,
2013-03-18 22:32:00,39.4,35.3,29.74,North,5,0.0,2.0,85,0.00,,,0.30,Wunderground v.1.15,2013-03-19 02:32:00,
2013-03-18 22:38:00,39.4,35.6,29.74,North,5,0.0,2.0,86,0.00,,,0.30,Wunderground v.1.15,2013-03-19 02:38:00,
2013-03-18 22:44:00,39.4,35.6,29.74,North,355,0.0,2.0,86,0.00,,,0.30,Wunderground v.1.15,2013-03-19 02:44:00,
2013-03-18 22:49:00,39.5,36.0,29.74,North,355,0.0,2.0,87,0.00,,,0.30,Wunderground v.1.15,2013-03-19 02:49:00,
2013-03-18 22:55:00,39.6,35.8,29.73,NW,312,0.0,2.0,86,0.00,,,0.30,Wunderground v.1.15,2013-03-19 02:55:00,
2013-03-18 23:00:00,39.7,35.9,29.73,NW,312,0.0,0.0,86,0.00,,,0.30,Wunderground v.1.15,2013-03-19 03:00:00,
2013-03-18 23:06:00,39.9,35.8,29.73,NNE,30,0.0,0.0,85,0.00,,,0.30,Wunderground v.1.15,2013-03-19 03:06:00,
2013-03-18 23:12:00,40.1,35.7,29.73,ESE,114,0.0,0.0,84,0.00,,,0.30,Wunderground v.1.15,2013-03-19 03:12:00,
2013-03-18 23:18:00,40.3,35.8,29.73,ENE,76,0.0,1.0,84,0.00,,,0.30,Wunderground v.1.15,2013-03-19 03:18:00,
2013-03-18 23:23:00,40.4,36.2,29.73,ENE,76,0.0,0.0,85,0.00,,,0.30,Wunderground v.1.15,2013-03-19 03:23:00,
2013-03-18 23:29:00,40.5,36.3,29.73,ENE,77,0.0,0.0,85,0.00,,,0.31,Wunderground v.1.15,2013-03-19 03:29:00,
2013-03-18 23:34:00,40.6,36.4,29.73,SSW,192,0.0,2.0,85,0.00,,,0.31,Wunderground v.1.15,2013-03-19 03:34:00,
2013-03-18 23:39:00,40.7,36.8,29.73,South,191,0.0,2.0,86,0.00,,,0.31,Wunderground v.1.15,2013-03-19 03:39:00,
2013-03-18 23:45:00,40.6,37.3,29.73,South,191,0.0,0.0,88,0.00,,,0.31,Wunderground v.1.15,2013-03-19 03:45:00,
2013-03-18 23:50:00,40.4,37.4,29.74,South,191,0.0,0.0,89,0.00,,,0.31,Wunderground v.1.15,2013-03-19 03:50:00,
2013-03-18 23:57:00,40.3,37.3,29.73,SSE,153,0.0,0.0,89,0.00,,,0.31,Wunderground v.1.15,2013-03-19 03:57:00,